Home > Weather > Turaif > Past weeks

Flag for Saudi Arabia Past Weather in Turaif, Saudi Arabia — Yesterday and Last 2 Weeks

Now
64 °F

Clear.


Feels Like: 64 °F
Forecast: 57 / 78 °F
Wind: 12 mph from Northwest

Location: Turaif

Current Time: May 28, 2016 at 1:19:32 AM

Latest Report: May 28, 2016 at 1:00 AM


Visibility: 10 mi

Pressure: 29.89 "Hg (27.12 "Hg at 827m altitude)

Humidity: 56%

Dew Point: 48 °F

Location of TuraifLocation

Past Weather in Turaif — Graph

°F

Turaif Temperature Yesterday

Maximum temperature yesterday: 82 °F (at 2:00 PM)
Minimum temperature yesterday: 66 °F (at 6:00 AM)
Average temperature yesterday: 74 °F

High & Low Weather Summary for the Past Weeks

 TemperatureHumidityPressure
High102 °F (May 16, 2:00 PM)88% (May 24, 6:00 AM)30.15 "Hg (May 24, 6:00 AM)
Low55 °F (May 19, 6:00 AM)10% (May 13, 4:00 PM)29.80 "Hg (May 26, 6:00 PM)
Average77 °F33%29.94 "Hg
* Reported May 13 1:00 AM — May 28 12:00 AM, Turaif, Weather by CustomWeather, © 2016

Note: Actual official high and low records may vary slightly from our data, if they occured in-between our weather recording intervals... More about our weather records

Advertising

Turaif Weather History for the Previous 24 Hours

Scroll right to see more
 ConditionsComfort  
Time TempWeatherWind HumidityBarometerVisibility
12:00 AM
Sat, May 28
66 °FClear.10 mph52%29.89 "Hg10 mi
11:00 PM
Fri, May 27
68 °FClear.12 mph49%29.89 "Hg10 mi
10:00 PM70 °FClear.14 mph46%29.86 "Hg10 mi
9:00 PM72 °FClear.15 mph41%29.86 "Hg10 mi
8:00 PM73 °FSunny.14 mph33%29.86 "Hg10 mi
7:00 PM77 °FSunny.14 mph28%29.83 "Hg10 mi
6:00 PM79 °FSunny.16 mph23%29.80 "Hg10 mi
5:00 PM81 °FSunny.18 mph24%29.80 "Hg10 mi
4:00 PM81 °FSunny.16 mph24%29.80 "Hg10 mi
3:00 PM82 °FSunny.16 mph20%29.80 "Hg10 mi
2:00 PM82 °FSunny.16 mph21%29.80 "Hg10 mi
1:00 PM81 °FSunny.12 mph28%29.83 "Hg10 mi
12:00 PM79 °FSunny.14 mph32%29.83 "Hg10 mi
11:00 AM77 °FSunny.13 mph34%29.83 "Hg10 mi
10:00 AM75 °FSunny.15 mph34%29.80 "Hg10 mi
9:00 AM73 °FSunny.17 mph29%29.80 "Hg10 mi
8:00 AM72 °FSunny.16 mph33%29.80 "Hg10 mi
7:00 AM68 °FSunny.14 mph43%29.80 "Hg10 mi
6:00 AM66 °FClear.14 mph49%29.80 "Hg10 mi
5:00 AM68 °FClear.14 mph38%29.80 "Hg10 mi
4:00 AM70 °FClear.7 mph35%29.80 "Hg10 mi
3:00 AM72 °FClear.7 mph33%29.80 "Hg10 mi
2:00 AM72 °FClear.9 mph36%29.80 "Hg10 mi
1:00 AM73 °FClear.9 mph29%29.80 "Hg10 mi
Weather by CustomWeather, © 2016

See weather overviewHow to use our weather pages